This demonstration page uses our WeatherBlox Daily Observations layout. Learn more.

Left ArrowRight Arrow

Hourly Observations for September 25, 2018

Temp ( °F °C ) Dew Point ( °F °C ) Humidity (%) Winds ( mph kmh ) Pressure ( in mb ) Visibility ( mi km ) Precip ( " mm )
12:57 am 00:57 Cloudy 57 13.9 52 11.1 83 83 NNE 13 20 29.92 1013 10 16 0.00 0.00
1:57 am 01:57 Mostly Cloudy 55 12.8 51 10.6 87 87 ENE 14 22 29.88 1012 10 16 0.00 0.00
2:57 am 02:57 Clear 54 12.2 51 10.6 90 90 ENE 10 17 29.85 1011 10 16 0.00 0.00
3:44 am 03:44 Mostly Clear 54 12 52 11 94 94 ENE 5 7 29.85 1011 10 16 0.00 0.00
3:57 am 03:57 Partly Cloudy 53 11.7 51 10.6 93 93 ENE 6 9 29.84 1011 10 16 0.00 0.00
4:09 am 04:09 Mostly Cloudy 54 12 52 11 94 94 NE 8 13 29.85 1011 10 16 0.00 0.00
4:57 am 04:57 Cloudy 54 12.2 52 11.1 93 93 NE 9 15 29.87 1012 10 16 0.00 0.00
5:57 am 05:57 Cloudy 54 12.2 51 10.6 90 90 N 17 28 29.91 1013 10 16 0.00 0.00
6:57 am 06:57 Cloudy 54 12.2 51 10.6 90 90 N 18 30 29.95 1014 10 16 0.00 0.00
7:23 am 07:23 Cloudy with Strong Thunderstorms 54 12 52 11 94 94 N 17 28 29.97 1015 5 8 0.00 0.00
7:47 am 07:47 Cloudy with Nearby Thunderstorms 54 12 52 11 94 94 N 16 26 29.97 1015 10 16 0.09 2.29
7:57 am 07:57 Mostly Cloudy 53 11.7 51 10.6 93 93 N 17 28 30.00 1016 10 16 0.09 2.29
8:14 am 08:14 Mostly Cloudy 54 12 52 11 94 94 N 20 31 30.03 1017 10 16 0.00 0.00
8:57 am 08:57 Cloudy 53 11.7 51 10.6 93 93 N 17 28 30.02 1017 10 16 0.00 0.00
9:18 am 09:18 Cloudy 54 12 52 11 94 94 NNW 17 28 30.03 1017 10 16 0.00 0.00
9:57 am 09:57 Cloudy 56 13.3 51 10.6 84 84 NNW 16 26 30.05 1018 10 16 0.00 0.00
10:25 am 10:25 Cloudy 57 14 50 10 77 77 NNW 17 28 30.06 1018 10 16 0.00 0.00
10:57 am 10:57 Cloudy 58 14.4 49 9.4 72 72 NNW 22 35 30.07 1018 10 16 0.00 0.00
11:57 am 11:57 Mostly Cloudy 59 15 47 8.3 64 64 NNW 28 44 30.09 1019 10 16 0.00 0.00
12:18 pm 12:18 Mostly Cloudy 61 16 46 8 59 59 NNW 24 39 30.09 1019 10 16 0.00 0.00
12:57 pm 12:57 Mostly Cloudy 63 17.2 46 7.8 54 54 NNW 24 39 30.09 1019 10 16 0.00 0.00
1:57 pm 13:57 Mostly Sunny 64 17.8 45 7.2 50 50 N 23 37 30.09 1019 10 16 0.00 0.00
2:57 pm 14:57 Partly Cloudy 66 18.9 43 6.1 43 43 NNW 26 43 30.08 1019 10 16 0.00 0.00
3:57 pm 15:57 Mostly Cloudy 66 18.9 42 5.6 42 42 N 21 33 30.09 1019 10 16 0.00 0.00
4:57 pm 16:57 Mostly Cloudy 65 18.3 41 5 42 42 N 20 31 30.10 1019 10 16 0.00 0.00
5:57 pm 17:57 Mostly Cloudy 65 18.3 36 2.2 34 34 N 16 26 30.12 1020 10 16 0.00 0.00
6:57 pm 18:57 Sunny 62 16.7 37 2.8 40 40 N 15 24 30.14 1021 10 16 0.00 0.00
7:57 pm 19:57 Clear 58 14.4 39 3.9 50 50 N 5 7 30.19 1022 10 16 0.00 0.00
8:57 pm 20:57 Clear 53 11.7 39 3.9 59 59 Calm 30.21 1023 10 16 0.00 0.00
9:57 pm 21:57 Clear 52 11.1 40 4.4 64 64 Calm 30.22 1024 10 16 0.00 0.00
10:57 pm 22:57 Clear 48 8.9 39 3.9 71 71 WNW 3 6 30.24 1024 10 16 0.00 0.00
11:57 pm 23:57 Clear 46 7.8 39 3.9 77 77 NW 7 11 30.26 1025 10 16 0.00 0.00

Powered by AerisWeather